Starlink 32340

operational
NORAD ID: 61008 Int'l Des: 2024-158 Owner: SPXS Country: US Constellation: starlink
LEOCIRCULAR

Über Starlink 32340

Beschreibung wird geladen...

Live-Position

3D-Globus wird geladen...

Nächste Überflüge

Höhenverlauf

Altitude vs Time

uPlot chart will show altitude changes over time

Zweizeiliger Elementsatz

1 61008U 24158U 25257.43887193 .00003132 00000-0 11778-3 0 9995
2 61008 53.1612 164.3256 0001366 79.8084 280.3071 15.30210754 58590
Epoch: 14. Sept. 2025 • Age: 20 hours

Aktueller Status

Höhe 487.3 km
Geschwindigkeit 7.62 km/s
Subsatellitenpunkt -35.59°S, 76.68°W
Startdatum 5. Sept. 2024
Alter 1 years
Typ internet

Technische Details

Klassifizierung Payload
Masse 730.00 kg
Trockenmasse 700.00 kg
Gesamtmasse 730.00 kg
Länge 0.30 m
Durchmesser 4.10 m
Spannweite 29.00 m
Form Box + pan
Hersteller SPXS
Bus-Typ Starlink V2M
Phasenstatus In Orbit
Besitzer/Staat SPXS/US

Große Konstellationen

Loading constellations...